EW6220 Weather Reports


Display with metric or nautical units.
time (UTC)temp
F
wind
direction
speed
MPH
gust
MPH
rain 1hr
in
rain 24hr
in
rain mn
in
humidity
%
barometer
mb
20260505024520 52 151 0.0 1.0 0.00 0.00 0.00 71 1004.0
20260505023020 52 112 0.0 1.0 0.00 0.00 0.00 70 1004.1
20260505021521 52 143 0.0 1.0 0.00 0.00 0.00 70 1004.2
20260505020018 53 148 0.0 1.0 0.00 0.00 0.00 67 1004.0
20260505014518 53 160 0.0 2.0 0.00 0.00 0.00 68 1004.0
20260505013017 53 153 0.0 2.0 0.00 0.00 0.00 69 1003.9
20260505011517 54 153 0.0 2.0 0.00 0.00 0.00 66 1003.9
20260505010014 55 172 0.0 1.0 0.00 0.00 0.00 63 1003.8
20260505004513 56 153 0.0 2.0 0.00 0.00 0.00 60 1003.8
20260505003020 58 114 0.0 1.0 0.00 0.00 0.00 56 1003.7
20260505001512 60 113 0.0 1.0 0.00 0.00 0.00 52 1003.7
20260505000011 62 111 0.0 1.0 0.00 0.00 0.00 49 1003.6
20260504234511 65 121 0.0 1.0 0.00 0.00 0.00 43 1003.6
20260504233010 70 121 0.0 1.0 0.00 0.00 0.00 37 1003.4
20260504231509 72 220 0.0 3.0 0.00 0.00 0.00 33 1003.4
20260504230009 72 143 0.0 3.0 0.00 0.00 0.00 33 1003.4
20260504224507 72 243 0.0 6.0 0.00 0.00 0.00 33 1003.5
20260504223005 73 195 2.0 9.0 0.00 0.00 0.00 31 1003.7
20260504221504 74 240 2.0 7.0 0.00 0.00 0.00 31 1003.7
20260504220003 73 237 4.0 10.0 0.00 0.00 0.00 31 1003.8
20260504214501 74 264 4.0 9.0 0.00 0.00 0.00 30 1003.9
20260504213058 73 153 3.0 10.0 0.00 0.00 0.00 32 1003.9
20260504211556 73 236 4.0 10.0 0.00 0.00 0.00 33 1004.0
20260504210106 73 239 6.0 12.0 0.00 0.00 0.00 33 1004.2
20260504204559 72 248 6.0 13.0 0.00 0.00 0.00 35 1004.2
20260504203103 72 297 5.0 18.0 0.00 0.00 0.00 35 1004.3
20260504201547 72 160 6.0 13.0 0.00 0.00 0.00 35 1004.5
20260504200045 71 229 3.0 17.0 0.00 0.00 0.00 38 1004.6
20260504194541 71 216 5.0 13.0 0.00 0.00 0.00 39 1004.9
20260504193038 70 216 6.0 16.0 0.00 0.00 0.00 39 1005.1
20260504191535 70 118 9.0 16.0 0.00 0.00 0.00 38 1005.4
20260504190040 70 238 7.0 14.0 0.00 0.00 0.00 39 1005.6
20260504184533 70 229 4.0 13.0 0.00 0.00 0.00 41 1005.7
20260504183032 70 217 7.0 13.0 0.00 0.00 0.00 41 1005.9
20260504181525 69 210 3.0 13.0 0.00 0.00 0.00 43 1006.1
20260504180022 68 258 5.0 16.0 0.00 0.00 0.00 44 1006.1
20260504174520 67 203 8.0 18.0 0.00 0.00 0.00 45 1006.1
20260504173018 67 284 8.0 17.0 0.00 0.00 0.00 45 1006.3
20260504171517 67 230 8.0 15.0 0.00 0.00 0.00 45 1006.4
20260504081601 48 176 2.0 6.0 0.00 0.00 0.00 58 1009.1
20260504044532 51 243 2.0 6.0 0.00 0.00 0.00 55 1009.8
20260504043030 51 155 0.0 6.0 0.00 0.00 0.00 55 1009.8
20260504041526 51 240 1.0 4.0 0.00 0.00 0.00 56 1009.8
20260504040024 52 176 1.0 6.0 0.00 0.00 0.00 55 1009.8
20260504034524 52 173 1.0 5.0 0.00 0.00 0.00 55 1009.9
20260504033022 52 219 1.0 4.0 0.00 0.00 0.00 56 1010.0
20260504031522 52 226 0.0 3.0 0.00 0.00 0.00 56 1010.1
20260504030021 52 264 3.0 6.0 0.00 0.00 0.00 55 1010.2